Showing default

TIANHUI 5C, 60211

Orbit data source: Space-Track

TIANHUI 5C, 60211 is a payload satellite owned by G. Cehui dili (CN) in SSO that was launched on Thu, 04 Jul 2024 UTC via a CHANG ZHENG 6A launch vehicle from the Taiyaun Space Center, China (TSC). Payload-class satellites include a variety of spacecraft equipped with specific instruments for various scientific and technological missions. These include communications satellites like Starlink; space stations such as the ISS; scientific satellites like the Hubble; Earth observation satellites from companies like Planet Labs, Umbra, and HawkEye 360; GPS; miniature CubeSats for education and research; and military/defense satellites.

Loading next visibility...
Identifier
60211, 2024-126A
Orbit
SSO
Country
Flag of CNCN / PRC
Related business
Manufacturer
DFH
Mission
Operational Civil Radar Imaging
Bus & Motor
CAST-2000?, Unknown motor
Mass
~1,000 kg wet, ~1,000 kg dry
Launch date (UTC)
2024-07-04 (1 year ago)
Launch vehicle
CHANG ZHENG 6A
Launch site
Taiyaun Space Center, China (TSC)
Object type
Payload
Rocket body
Debris
Shape & HBR
Box + 2 Pan, 7.0 m
Radar Cross Section
12.451 m², Large (>1 m²)

Expand to show TLE details & history
Last TLE update: 13 hours ago

TLE from 13 hours ago
0 TIANHUI 5C
1 60211U 24126A   25307.56138708  .00000616  00000-0  73796-4 0  9999
2 60211  97.8195 313.3628 0001519  88.4434 271.6956 14.87590556 72346
Epoch: 2025-11-03T13:28Z
TLE epoch observation values (Epoch: 2025-11-03T13:28:23.843Z)
Latitude
-0.00007°
Longitude
68.20247°
Altitude
608.469 km
Speed
7.555 km/s
True Right ascension
20h 53m 27s
True Declination
0° 00' 00"
Sunlit
Object was in daylight at epoch
Visualization orbit readout
Latitude
Unknown
Longitude
Unknown
Altitude
Unknown
Speed
Unknown
Apparent Right ascension
Unknown
Apparent Declination
Unknown
Sunlit
N/A
Visualization observer readout
Local Sidereal Time
22:42:29
Azimuth
Unknown
Elevation
Unknown
Doppler factor
Unknown
Orbital elements
Apogee altitude
603.554 km
Perigee altitude
601.433 km
Semi-major axis
6,980.631 km
Eccentricity
0.00015
Inclination
97.8195°
RAAN
313.3628°
Arg. of periapsis
88.4434°
True anomaly
271.6782°
Mean anomaly
271.6956°
Eccentric anomaly
271.6869°
Mean motion
3.72136 °/min
Orbital period
96.74 mins
BSTAR
0.000073796
Loading maneuver chart data...
Computing Atmospheric mass density...
Loading historical data...
Loading historical data...
Loading historical data...
Loading historical data...
Loading historical data...
Loading historical data...
Loading historical data...
Other satellites on launch #126 in the year 2024 (2024-07-04 UTC)

Documentation

Showing up to 5 results
|